[[{"header":{"parameterUnit":"m.s-1","parameterCategory":1,"la1":30.2991,"la2":30.254,"lo1":-89.0895,"lo2":-89.0444,"dy":0.0017,"dx":0.0017,"nx":28,"ny":28,"refTime":"2025-06-04T09:00:00:Z","depth":0,"parameterNumber":2,"parameterNumberName":"U-component_of_WINDS"},"data":[0,0,0,0,0,0,0,0,0,0,0,0,0,0,0,0,0,0,0,0,0,0,0,0,0,0,0,0,0,0,0,0,0,0,0,0,0,0,0,0,0,0,0,0,0,0,0,0,0,0,0,0,0,0,0,0,0,0,0.9732,0.9732,0,0.9788,0.9788,0.9789,0.9781,0.978,0.9779,0.9779,0.9835,0.9838,0.984,0,0,0,0,0,0,0,0,0,0,0,0,0,0.9618,0.962,0.9732,0.9733,0.9733,0.9788,0.9788,0.9789,0.9781,0.978,0.9779,0.9778,0.9834,0.9837,0.984,0,0,0,0,0,0,0,0,0,0,0,0,0,0.967,0.9621,0.9732,0.9736,0.9737,0.9788,0.9788,0.9789,0.9782,0.978,0.9779,0.9778,0.9834,0.9837,0.9841,0.989,0,0,0.9851,0.9853,0,0,0,0,0,0,0,0,0.9667,0.9674,0.9735,0.9736,0.9737,0.9776,0.9769,0.9823,0.9782,0.9765,0.9779,0.9777,0.9817,0.9822,0.9835,0.9893,0.9895,0.9852,0.9854,0.9855,0.9856,0,0,0,0,0,0,0,0.9663,0.9672,0.9754,0.9736,0.9737,0.9735,0.9741,0.9779,0.9798,0.9766,0.9766,0.9772,0.9817,0.9832,0.9836,0.9896,0.9852,0.9855,0.9857,0.9858,0.9997,0.9999,0,0,0,0,0,0,0.9659,0.9669,0.9752,0.9756,0.9698,0.9738,0.9745,0.9765,0.9797,0.9801,0.9774,0.9772,0.9826,0.9832,0.9838,0.9898,0.9855,0.9859,0.9861,0.9996,0.9998,0.9999,0,0,0,0,0,0,0.9656,0.9666,0.975,0.9712,0.9723,0.9742,0.9764,0.9767,0.9781,0.9803,0.9806,0.9785,0.9825,0.9833,0.9877,0.99,0.986,0.9864,0.9994,0.9996,0.9998,1.0018,0,0,0,0,0,0,0.9653,0.9665,0.9685,0.9713,0.9725,0.9788,0.9766,0.9769,0.9788,0.9786,0.9815,0.9818,0.9825,0.9872,0.9881,0.9904,0.9866,0.9992,0.9995,0.9998,1.0015,1.0021,1.0025,0,0,0,0,0,0.9649,0.9688,0.9686,0.9696,0.9749,0.9789,0.9796,0.9803,0.9789,0.9809,0.9823,0.9817,0.9896,0.9877,0.9886,0.9911,0.999,0.9994,0.9997,1.0013,1.0019,1.0025,0,0,0,0,0,0,0.9661,0.9691,0.9689,0.9738,0.9761,0.9788,0.9812,0.981,0.9837,0.9835,0.9843,0.9849,0.9893,0.9907,0.9884,0.9961,0.9941,0.9947,0.995,0.9956,0.9961,0.9956,0.9869,0,0,0,0,0,0.967,0.9701,0.9725,0.9766,0.9778,0.9793,0.9811,0.9815,0.9839,0.9848,0.9866,0.9889,0.9919,0.9939,0.9968,1.0018,1.0023,1.004,1.0044,1.0048,1.0053,1.0079,1.0087,1.0011,1.0011,1.0011,0,0,0.9688,0.9708,0.9727,0.9769,0.9787,0.9818,0.9801,0.9835,0.9858,0.9854,0.9896,0.9909,0.9936,0.9983,1.0005,0.9996,1.0075,1.0053,1.0056,1.0058,1.0084,1.0091,1.0097,1.0013,1.0013,1.0012,0,0,0.9735,0.9754,0.979,0.9809,0.9837,0.9847,0.9856,0.9883,0.9892,0.9935,0.9932,0.9959,1.0011,1.003,1.0047,1.0102,1.0098,1.0112,1.0137,1.0163,1.0169,1.0174,1.0193,1.02,1.0116,1.0116,1.0116,0,0.9754,0.98,0.9809,0.9843,0.9861,0.9859,0.9895,0.9913,0.9949,0.9962,0.9951,1.0016,1.0034,1.0085,1.0099,1.0113,1.0122,1.0108,1.0167,1.0173,1.0178,1.0196,1.0203,1.0118,1.0118,1.0118,1.0117,0,0.9821,0.9854,0.9879,0.9914,0.9936,0.997,0.9984,1.0005,1.0007,1.0018,1.0061,1.0083,1.0116,1.0129,1.0131,1.0181,1.0174,1.0166,1.0146,1.0186,1.0203,1.021,1.012,1.0119,1.0119,1.0119,0,0,0.9876,0.9916,0.9925,0.9941,0.9972,0.9997,1.0032,1.0065,1.0082,1.0107,1.0136,1.0181,1.0173,1.0192,1.0197,1.022,1.0261,1.0208,1.0209,1.0216,1.0316,1.032,1.0328,1.0259,1.0261,1.0262,1.0313,0,0.9926,0.9987,0.9996,1.005,1.008,1.0079,1.011,1.0132,1.0144,1.0171,1.0184,1.0214,1.0203,1.0214,1.0237,1.0251,1.0281,1.0248,1.0285,1.0287,1.0277,1.0337,1.0343,1.039,1.032,1.0321,1.0322,0,0.9992,1.0019,1.0076,1.0103,1.0116,1.0143,1.0173,1.0199,1.0225,1.0232,1.0253,1.0255,1.0291,1.0271,1.0321,1.0298,1.0314,1.0324,1.0326,1.0328,1.0305,1.034,1.0405,1.0411,1.0333,1.0332,1.0331,0,1.0025,1.0076,1.0116,1.013,1.0163,1.0182,1.0196,1.0221,1.0239,1.0266,1.0279,1.031,1.0326,1.035,1.036,1.0345,1.0409,1.039,1.0414,1.0414,1.0426,1.0425,1.0493,1.044,1.044,1.0439,1.0439,0,1.0078,1.0112,1.0131,1.0156,1.0195,1.0205,1.0243,1.0257,1.0279,1.0306,1.0308,1.0333,1.0346,1.0374,1.0382,1.0421,1.0429,1.0435,1.0437,1.0434,1.0433,1.0444,1.044,1.0441,1.0441,1.044,1.044,0,1.012,1.0135,1.0178,1.0206,1.0214,1.0242,1.0265,1.0289,1.0301,1.0336,1.0345,1.0363,1.0396,1.0409,1.0449,1.0455,1.0499,1.0499,1.0491,1.0491,1.0514,1.0511,1.059,1.06,1.0541,1.0542,1.0542,0,1.0152,1.0179,1.021,1.0229,1.0244,1.0274,1.0293,1.0305,1.0325,1.0356,1.0376,1.0409,1.0435,1.0487,1.0505,1.0535,1.0535,1.056,1.0539,1.0536,1.0534,1.0531,1.0533,1.0564,1.0564,1.0565,1.0565,0,1.0208,1.0214,1.0242,1.0272,1.0296,1.032,1.0344,1.036,1.0375,1.0397,1.0431,1.0451,1.0492,1.0524,1.0556,1.0571,1.057,1.0572,1.0579,1.0576,1.0569,1.0571,1.0499,1.057,1.0569,1.0569,1.0569,1.0568,1.0245,1.0268,1.0294,1.0325,1.0344,1.0367,1.0391,1.0406,1.0434,1.0468,1.0474,1.0509,1.0534,1.0577,1.0593,1.0621,1.0614,1.0625,1.0627,1.0629,1.063,1.0566,1.0627,1.0627,1.0627,1.0627,1.0627,0,1.0299,1.0315,1.0344,1.0378,1.0402,1.0401,1.0428,1.0448,1.0479,1.0503,1.0529,1.0567,1.0599,1.0619,1.0651,1.0669,1.067,1.0677,1.0675,1.0678,1.0635,1.0625,1.0676,1.0676,1.0676,1.0676,1.0676,1.0676,1.033,1.0369,1.0378,1.0427,1.0443,1.0478,1.0493,1.0514,1.0533,1.0576,1.0602,1.0615,1.0637,1.0671,1.0699,1.0704,1.0715,1.0723,1.0727,1.0686,1.0681,1.0676,1.0667,1.0726,1.0726,1.0768,1.0768,1.0768]},{"header":{"parameterUnit":"m.s-1","parameterCategory":1,"la1":30.2991,"la2":30.254,"lo1":-89.0895,"lo2":-89.0444,"dy":0.0017,"dx":0.0017,"nx":28,"ny":28,"refTime":"2025-06-04T09:00:00:Z","depth":0,"parameterNumber":3,"parameterNumberName":"V-component_of_WINDS"},"data":[0,0,0,0,0,0,0,0,0,0,0,0,0,0,0,0,0,0,0,0,0,0,0,0,0,0,0,0,0,0,0,0,0,0,0,0,0,0,0,0,0,0,0,0,0,0,0,0,0,0,0,0,0,0,0,0,0,0,1.7112,1.7112,0,1.7178,1.7179,1.7179,1.7151,1.715,1.7148,1.7147,1.7213,1.7216,1.7219,0,0,0,0,0,0,0,0,0,0,0,0,0,1.6958,1.6961,1.7112,1.7112,1.7113,1.7178,1.7179,1.7179,1.7152,1.715,1.7148,1.7146,1.7212,1.7216,1.722,0,0,0,0,0,0,0,0,0,0,0,0,0,1.7025,1.6962,1.7111,1.7107,1.7107,1.7178,1.7179,1.718,1.7152,1.715,1.7147,1.7145,1.7211,1.7215,1.722,1.7298,0,0,1.7235,1.7237,0,0,0,0,0,0,0,0,1.7021,1.703,1.7107,1.7108,1.7108,1.7154,1.7149,1.7219,1.7153,1.7135,1.7147,1.7144,1.7195,1.7201,1.7219,1.7301,1.7303,1.7235,1.7238,1.724,1.7242,0,0,0,0,0,0,0,1.7017,1.7027,1.7138,1.7108,1.7109,1.7101,1.7108,1.7162,1.7178,1.7137,1.7135,1.7143,1.7195,1.7214,1.722,1.7304,1.7235,1.7239,1.7242,1.7244,1.7451,1.7454,0,0,0,0,0,0,1.7012,1.7024,1.7136,1.714,1.7058,1.7106,1.7113,1.7142,1.7177,1.718,1.7145,1.7141,1.7207,1.7214,1.7222,1.7314,1.724,1.7245,1.7248,1.7449,1.7452,1.7455,0,0,0,0,0,0,1.7009,1.7022,1.7133,1.7081,1.7095,1.7111,1.7143,1.7144,1.7163,1.7183,1.7186,1.7162,1.7205,1.7215,1.7279,1.7316,1.7247,1.7251,1.7446,1.745,1.7453,1.75,0,0,0,0,0,0,1.7005,1.7021,1.7052,1.7082,1.7098,1.7189,1.7145,1.7147,1.7172,1.7168,1.72,1.7203,1.7204,1.7272,1.7284,1.7322,1.7255,1.7443,1.7448,1.7452,1.7495,1.7505,1.7513,0,0,0,0,0,1.6999,1.7062,1.7054,1.7067,1.7136,1.7192,1.72,1.7201,1.7175,1.7205,1.7218,1.7202,1.731,1.7278,1.7292,1.7332,1.744,1.7446,1.7452,1.7491,1.7503,1.7513,0,0,0,0,0,0,1.7036,1.7066,1.7057,1.7132,1.7159,1.7187,1.7225,1.7214,1.725,1.7244,1.7243,1.7251,1.7316,1.733,1.7294,1.7407,1.7371,1.738,1.7396,1.7408,1.7416,1.7412,1.7259,0,0,0,0,0,1.7053,1.7096,1.712,1.7183,1.7198,1.7209,1.7233,1.7232,1.726,1.7271,1.7289,1.7316,1.7356,1.7383,1.7421,1.7497,1.7502,1.753,1.7539,1.7547,1.7554,1.7594,1.7606,1.7474,1.7474,1.7474,0,0,1.7088,1.711,1.7137,1.7191,1.7212,1.7256,1.7219,1.7268,1.73,1.7278,1.7339,1.7353,1.7383,1.7453,1.7484,1.7467,1.7592,1.7554,1.756,1.7563,1.7601,1.7614,1.7625,1.7478,1.7477,1.7477,0,0,1.7174,1.7195,1.725,1.7272,1.7304,1.7311,1.7324,1.7353,1.7362,1.7423,1.7407,1.7445,1.7514,1.7536,1.7557,1.7649,1.7635,1.7662,1.7709,1.7748,1.7758,1.7767,1.7799,1.7811,1.7669,1.7669,1.7669,0,1.7213,1.728,1.7279,1.7329,1.7352,1.7335,1.739,1.7411,1.7454,1.747,1.745,1.7536,1.7555,1.7629,1.7651,1.7669,1.7682,1.7658,1.7757,1.7766,1.7775,1.7805,1.7817,1.7672,1.7672,1.7671,1.7671,0,1.7326,1.7372,1.7412,1.7454,1.7482,1.7534,1.754,1.7569,1.7564,1.7573,1.7634,1.7657,1.7698,1.7716,1.7712,1.7789,1.7776,1.7757,1.772,1.779,1.7819,1.7831,1.7676,1.7675,1.7674,1.7674,0,0,1.7438,1.7478,1.7493,1.7511,1.7545,1.758,1.763,1.7671,1.7695,1.7725,1.7766,1.7825,1.7806,1.7829,1.7827,1.7861,1.7932,1.7837,1.7837,1.7853,1.8016,1.8031,1.8044,1.7922,1.7925,1.7926,1.8013,0,1.7526,1.7615,1.7615,1.7696,1.7738,1.7721,1.7765,1.779,1.7799,1.7835,1.7844,1.7885,1.7858,1.7872,1.7905,1.7916,1.7964,1.791,1.796,1.7962,1.7953,1.806,1.8075,1.8156,1.8025,1.8027,1.8028,0,1.7641,1.7674,1.776,1.7786,1.7804,1.7843,1.788,1.7915,1.7942,1.7946,1.7971,1.7963,1.8013,1.7975,1.8043,1.8006,1.8026,1.8034,1.8037,1.8042,1.7999,1.8066,1.8182,1.8194,1.8046,1.8044,1.8043,0,1.7713,1.7779,1.7839,1.7855,1.7887,1.7915,1.793,1.7955,1.7979,1.8011,1.8026,1.8063,1.8083,1.8112,1.8114,1.8086,1.8182,1.8144,1.8186,1.8186,1.8207,1.8205,1.8327,1.8221,1.822,1.822,1.822,0,1.7811,1.7864,1.7871,1.7908,1.7966,1.7965,1.8022,1.8035,1.8057,1.8094,1.8082,1.8117,1.8118,1.8154,1.8156,1.8211,1.8221,1.8225,1.8224,1.8226,1.8225,1.8239,1.8233,1.8223,1.8223,1.8222,1.8222,0,1.7902,1.7909,1.7972,1.7998,1.8005,1.8047,1.8068,1.8102,1.8109,1.8157,1.8168,1.8179,1.8221,1.8226,1.8274,1.8275,1.8342,1.8336,1.8333,1.8332,1.8373,1.8369,1.8508,1.8525,1.8408,1.8409,1.841,0,1.7964,1.8004,1.8033,1.8058,1.8074,1.8114,1.8138,1.8138,1.8164,1.8197,1.8227,1.8267,1.83,1.8366,1.8378,1.8415,1.8409,1.8455,1.8415,1.8414,1.8409,1.8407,1.841,1.8463,1.8465,1.8466,1.8467,0,1.8073,1.8074,1.811,1.8147,1.8176,1.8205,1.8232,1.8253,1.8257,1.8286,1.8328,1.8353,1.8402,1.8442,1.8478,1.8492,1.848,1.8479,1.8491,1.8492,1.8489,1.849,1.8354,1.8476,1.8475,1.8474,1.8474,1.8473,1.8151,1.8185,1.8211,1.825,1.8271,1.8296,1.8329,1.834,1.8376,1.8416,1.8414,1.846,1.8485,1.8532,1.8548,1.8584,1.8568,1.8585,1.8589,1.8593,1.8597,1.8483,1.859,1.859,1.859,1.8589,1.8589,0,1.8258,1.8274,1.8311,1.8349,1.838,1.8366,1.8395,1.8421,1.8463,1.8487,1.8518,1.8566,1.8604,1.8619,1.8656,1.8682,1.8677,1.8691,1.8689,1.8692,1.8609,1.8595,1.8694,1.8694,1.8694,1.8694,1.8694,1.8694,1.8318,1.8375,1.8379,1.8445,1.846,1.8506,1.8523,1.8546,1.8565,1.862,1.8651,1.8661,1.868,1.8719,1.8752,1.8756,1.8769,1.8786,1.8787,1.8709,1.8698,1.8688,1.8675,1.8789,1.8789,1.8867,1.8868,1.8868]}]]